Time,TemperatureF,DewpointF,PressureIn,WindDirection,WindDirectionDegrees,WindSpeedMPH,WindSpeedGustMPH,Humidity,HourlyPrecipIn,Conditions,Clouds,dailyrainin,SoftwareType,DateUTC
2013-03-19 00:00:00,30.2,23.9,29.88,East,87,4.9,4.9,77,0.00,,,0.00,VWS V14.01,2013-03-19 04:00:00,
2013-03-19 00:05:00,30.0,23.7,29.88,ESE,113,0.0,0.0,77,0.00,,,0.00,VWS V14.01,2013-03-19 04:05:00,
2013-03-19 00:10:00,30.0,24.0,29.88,East,80,3.1,3.1,78,0.00,,,0.00,VWS V14.01,2013-03-19 04:10:00,
2013-03-19 00:15:00,29.8,24.1,29.88,ESE,104,0.0,3.1,79,0.00,,,0.00,VWS V14.01,2013-03-19 04:15:00,
2013-03-19 00:20:00,29.8,24.1,29.88,ESE,111,0.0,0.0,79,0.00,,,0.00,VWS V14.01,2013-03-19 04:20:00,
2013-03-19 00:25:00,29.8,24.4,29.88,ENE,69,3.6,3.6,80,0.00,,,0.00,VWS V14.01,2013-03-19 04:25:00,
2013-03-19 00:30:00,29.8,24.7,29.88,East,91,2.7,2.7,81,0.00,,,0.00,VWS V14.01,2013-03-19 04:30:00,
2013-03-19 00:36:00,29.7,24.6,29.85,East,93,2.7,2.7,81,0.00,,,0.00,VWS V14.01,2013-03-19 04:36:00,
2013-03-19 00:40:00,29.8,25.0,29.85,East,93,2.2,2.2,82,0.00,,,0.00,VWS V14.01,2013-03-19 04:40:00,
2013-03-19 00:45:00,29.8,25.3,29.85,East,85,2.2,2.2,83,0.00,,,0.00,VWS V14.01,2013-03-19 04:45:00,
2013-03-19 00:50:00,29.8,25.3,29.85,East,93,3.1,3.1,83,0.00,,,0.00,VWS V14.01,2013-03-19 04:50:00,
2013-03-19 00:55:00,29.8,25.6,29.85,ESE,104,3.1,3.1,84,0.00,,,0.00,VWS V14.01,2013-03-19 04:55:00,
2013-03-19 01:00:00,30.0,26.1,29.83,East,98,0.0,0.0,85,0.00,,,0.00,VWS V14.01,2013-03-19 05:00:00,
2013-03-19 01:05:00,30.0,26.4,29.83,ESE,110,2.2,2.2,86,0.00,,,0.00,VWS V14.01,2013-03-19 05:05:00,
2013-03-19 01:10:00,30.2,26.8,29.83,East,83,2.7,2.7,87,0.00,,,0.00,VWS V14.01,2013-03-19 05:10:00,
2013-03-19 01:15:00,30.2,26.8,29.83,ESE,119,2.7,2.7,87,0.00,,,0.00,VWS V14.01,2013-03-19 05:15:00,
2013-03-19 01:20:00,30.2,27.1,29.83,ENE,70,3.1,3.1,88,0.00,,,0.00,VWS V14.01,2013-03-19 05:20:00,
2013-03-19 01:25:00,30.2,27.1,29.83,East,96,4.9,4.9,88,0.00,,,0.00,VWS V14.01,2013-03-19 05:25:00,
2013-03-19 01:30:00,30.2,27.4,29.80,East,100,3.6,3.6,89,0.00,,,0.00,VWS V14.01,2013-03-19 05:30:00,
2013-03-19 01:35:00,30.4,27.5,29.80,East,100,3.6,3.6,89,0.00,,,0.00,VWS V14.01,2013-03-19 05:35:00,
2013-03-19 01:40:00,30.4,27.5,29.80,ESE,111,0.0,0.0,89,0.00,,,0.00,VWS V14.01,2013-03-19 05:40:00,
2013-03-19 01:45:00,30.4,27.5,29.80,East,91,0.0,0.0,89,0.00,,,0.00,VWS V14.01,2013-03-19 05:45:00,
2013-03-19 01:50:00,30.4,27.5,29.80,East,91,0.0,0.0,89,0.00,,,0.00,VWS V14.01,2013-03-19 05:50:00,
2013-03-19 01:55:00,30.4,27.8,29.80,East,91,0.0,0.0,90,0.00,,,0.00,VWS V14.01,2013-03-19 05:55:00,
2013-03-19 02:00:00,30.4,27.8,29.80,East,91,0.0,0.0,90,0.00,,,0.00,VWS V14.01,2013-03-19 06:00:00,
2013-03-19 02:05:00,30.6,28.0,29.80,ESE,112,4.0,4.0,90,0.00,,,0.00,VWS V14.01,2013-03-19 06:05:00,
2013-03-19 02:10:00,30.6,28.0,29.77,ESE,112,4.0,4.0,90,0.00,,,0.00,VWS V14.01,2013-03-19 06:10:00,
2013-03-19 02:15:00,30.7,28.4,29.77,ESE,109,5.4,5.4,91,0.00,,,0.00,VWS V14.01,2013-03-19 06:15:00,
2013-03-19 02:20:00,30.7,28.4,29.77,ESE,109,5.4,5.4,91,0.00,,,0.00,VWS V14.01,2013-03-19 06:20:00,
2013-03-19 02:25:00,30.9,28.9,29.77,ESE,109,5.4,5.4,92,0.00,,,0.00,VWS V14.01,2013-03-19 06:25:00,
2013-03-19 02:30:00,30.9,28.9,29.77,ESE,109,5.4,5.4,92,0.00,,,0.00,VWS V14.01,2013-03-19 06:30:00,
2013-03-19 02:35:00,30.9,28.9,29.77,ESE,120,0.0,0.0,92,0.00,,,0.00,VWS V14.01,2013-03-19 06:35:00,
2013-03-19 02:40:00,30.9,28.9,29.77,ESE,120,0.0,0.0,92,0.00,,,0.00,VWS V14.01,2013-03-19 06:40:00,
2013-03-19 02:45:00,31.1,29.0,29.77,ESE,120,0.0,0.0,92,0.00,,,0.00,VWS V14.01,2013-03-19 06:45:00,
2013-03-19 02:50:00,31.1,29.0,29.77,East,98,3.6,3.6,92,0.00,,,0.00,VWS V14.01,2013-03-19 06:50:00,
2013-03-19 02:55:00,31.1,29.3,29.77,East,98,3.6,3.6,93,0.00,,,0.00,VWS V14.01,2013-03-19 06:55:00,
2013-03-19 03:00:00,31.1,29.3,29.74,East,98,3.6,3.6,93,0.00,,,0.00,VWS V14.01,2013-03-19 07:00:00,
2013-03-19 03:05:00,31.3,29.5,29.74,East,97,0.0,0.0,93,0.00,,,0.00,VWS V14.01,2013-03-19 07:05:00,
2013-03-19 03:10:00,31.3,29.5,29.74,East,89,0.0,0.0,93,0.00,,,0.00,VWS V14.01,2013-03-19 07:10:00,
2013-03-19 03:15:00,31.3,29.5,29.74,ENE,61,0.0,0.0,93,0.00,,,0.00,VWS V14.01,2013-03-19 07:15:00,
2013-03-19 03:20:00,31.5,29.7,29.74,ESE,106,0.0,0.0,93,0.00,,,0.00,VWS V14.01,2013-03-19 07:20:00,
2013-03-19 03:25:00,31.5,29.9,29.74,ESE,120,0.0,0.0,94,0.00,,,0.00,VWS V14.01,2013-03-19 07:25:00,
2013-03-19 03:30:00,31.6,30.1,29.74,East,84,0.0,0.0,94,0.00,,,0.00,VWS V14.01,2013-03-19 07:30:00,
2013-03-19 03:35:00,31.6,30.1,29.74,East,91,0.0,0.0,94,0.00,,,0.00,VWS V14.01,2013-03-19 07:35:00,
2013-03-19 03:40:00,31.6,30.1,29.74,East,82,0.0,0.0,94,0.00,,,0.00,VWS V14.01,2013-03-19 07:40:00,
2013-03-19 03:45:00,31.6,30.1,29.74,ESE,123,0.0,0.0,94,0.00,,,0.00,VWS V14.01,2013-03-19 07:45:00,
2013-03-19 03:50:00,31.8,30.3,29.74,ESE,104,0.0,0.0,94,0.00,,,0.00,VWS V14.01,2013-03-19 07:50:00,
2013-03-19 03:55:00,31.8,30.3,29.74,ENE,74,0.0,0.0,94,0.00,,,0.00,VWS V14.01,2013-03-19 07:55:00,
2013-03-19 04:00:00,31.8,30.5,29.74,ENE,76,2.2,2.2,95,0.00,,,0.00,VWS V14.01,2013-03-19 08:00:00,
2013-03-19 04:05:00,32.0,30.7,29.74,East,96,0.0,0.0,95,0.00,,,0.00,VWS V14.01,2013-03-19 08:05:00,
2013-03-19 04:10:00,32.0,30.7,29.74,East,92,0.0,0.0,95,0.00,,,0.00,VWS V14.01,2013-03-19 08:10:00,
2013-03-19 04:15:00,32.0,30.7,29.71,East,84,0.0,0.0,95,0.00,,,0.00,VWS V14.01,2013-03-19 08:15:00,
2013-03-19 04:20:00,32.2,30.9,29.71,ESE,115,0.0,0.0,95,0.00,,,0.00,VWS V14.01,2013-03-19 08:20:00,
2013-03-19 04:25:00,32.2,30.9,29.71,East,96,0.0,0.0,95,0.00,,,0.00,VWS V14.01,2013-03-19 08:25:00,
2013-03-19 04:30:00,32.2,30.9,29.71,ENE,64,0.0,0.0,95,0.00,,,0.00,VWS V14.01,2013-03-19 08:30:00,
2013-03-19 04:35:00,32.4,31.1,29.71,East,98,2.7,2.7,95,0.00,,,0.00,VWS V14.01,2013-03-19 08:35:00,
2013-03-19 04:40:00,32.4,31.4,29.71,SE,143,0.0,0.0,96,0.00,,,0.00,VWS V14.01,2013-03-19 08:40:00,
2013-03-19 04:45:00,32.4,31.4,29.71,East,86,0.0,0.0,96,0.00,,,0.00,VWS V14.01,2013-03-19 08:45:00,
2013-03-19 04:50:00,32.5,31.5,29.71,SE,133,0.0,0.0,96,0.00,,,0.00,VWS V14.01,2013-03-19 08:50:00,
2013-03-19 04:55:00,32.5,31.5,29.71,SSE,164,0.0,0.0,96,0.00,,,0.00,VWS V14.01,2013-03-19 08:55:00,
2013-03-19 05:00:00,32.5,31.5,29.71,East,91,0.0,0.0,96,0.00,,,0.00,VWS V14.01,2013-03-19 09:00:00,
2013-03-19 05:05:00,32.7,31.7,29.71,East,88,0.0,0.0,96,0.00,,,0.00,VWS V14.01,2013-03-19 09:05:00,
2013-03-19 05:10:00,32.7,31.7,29.71,East,90,0.0,0.0,96,0.00,,,0.00,VWS V14.01,2013-03-19 09:10:00,
2013-03-19 05:15:00,32.7,31.7,29.71,East,79,0.0,0.0,96,0.00,,,0.00,VWS V14.01,2013-03-19 09:15:00,
2013-03-19 05:20:00,32.9,31.9,29.71,East,79,0.0,0.0,96,0.00,,,0.00,VWS V14.01,2013-03-19 09:20:00,
2013-03-19 05:25:00,32.9,31.9,29.71,East,96,0.0,0.0,96,0.00,,,0.00,VWS V14.01,2013-03-19 09:25:00,
2013-03-19 05:30:00,33.1,32.1,29.71,East,92,0.0,0.0,96,0.00,,,0.00,VWS V14.01,2013-03-19 09:30:00,
2013-03-19 05:35:00,33.1,32.1,29.71,ESE,104,0.0,0.0,96,0.00,,,0.00,VWS V14.01,2013-03-19 09:35:00,
2013-03-19 05:40:00,33.3,32.2,29.71,ESE,123,0.0,0.0,96,0.00,,,0.00,VWS V14.01,2013-03-19 09:40:00,
2013-03-19 05:45:00,33.3,32.2,29.71,SE,135,0.0,0.0,96,0.00,,,0.00,VWS V14.01,2013-03-19 09:45:00,
2013-03-19 05:50:00,33.4,32.7,29.71,ESE,108,0.0,0.0,97,0.00,,,0.00,VWS V14.01,2013-03-19 09:50:00,
2013-03-19 05:55:00,33.4,32.7,29.71,ENE,78,0.0,0.0,97,0.00,,,0.00,VWS V14.01,2013-03-19 09:55:00,
2013-03-19 06:00:00,33.6,32.9,29.68,SE,130,0.0,0.0,97,0.00,,,0.00,VWS V14.01,2013-03-19 10:00:00,
2013-03-19 06:05:00,33.6,32.9,29.68,East,80,0.0,0.0,97,0.00,,,0.00,VWS V14.01,2013-03-19 10:05:00,
2013-03-19 06:10:00,33.8,33.0,29.68,East,82,0.0,0.0,97,0.00,,,0.00,VWS V14.01,2013-03-19 10:10:00,
2013-03-19 06:15:00,33.8,33.0,29.68,ESE,112,0.0,3.1,97,0.00,,,0.00,VWS V14.01,2013-03-19 10:15:00,
2013-03-19 06:20:00,34.0,33.2,29.68,East,101,2.7,3.1,97,0.00,,,0.00,VWS V14.01,2013-03-19 10:20:00,
2013-03-19 06:25:00,34.0,33.2,29.68,East,86,0.0,4.0,97,0.00,,,0.00,VWS V14.01,2013-03-19 10:25:00,
2013-03-19 06:30:00,34.2,33.4,29.68,East,96,2.7,2.7,97,0.00,,,0.00,VWS V14.01,2013-03-19 10:30:00,
2013-03-19 06:35:00,34.2,33.4,29.68,East,97,0.0,0.0,97,0.00,,,0.00,VWS V14.01,2013-03-19 10:35:00,
2013-03-19 06:40:00,34.2,33.4,29.65,ENE,78,5.4,5.4,97,0.00,,,0.00,VWS V14.01,2013-03-19 10:40:00,
2013-03-19 06:45:00,34.3,33.8,29.65,East,93,3.1,3.1,98,0.00,,,0.00,VWS V14.01,2013-03-19 10:45:00,
2013-03-19 06:50:00,34.3,33.8,29.65,ENE,58,0.0,0.0,98,0.00,,,0.00,VWS V14.01,2013-03-19 10:50:00,
2013-03-19 06:55:00,34.3,33.8,29.65,SE,127,4.9,4.9,98,0.00,,,0.00,VWS V14.01,2013-03-19 10:55:00,
2013-03-19 07:00:00,34.3,33.8,29.65,East,95,2.7,4.0,98,0.00,,,0.00,VWS V14.01,2013-03-19 11:00:00,
2013-03-19 07:05:00,34.3,33.8,29.65,ESE,113,3.6,3.6,98,0.00,,,0.00,VWS V14.01,2013-03-19 11:05:00,
2013-03-19 07:10:00,34.5,34.0,29.65,SSE,153,0.0,3.6,98,0.00,,,0.00,VWS V14.01,2013-03-19 11:10:00,
2013-03-19 07:15:00,34.5,34.0,29.65,ESE,106,2.2,2.2,98,0.00,,,0.00,VWS V14.01,2013-03-19 11:15:00,
2013-03-19 07:20:00,34.5,34.0,29.65,East,93,3.6,4.0,98,0.00,,,0.00,VWS V14.01,2013-03-19 11:20:00,
2013-03-19 07:25:00,34.5,34.0,29.65,East,92,5.8,5.8,98,0.00,,,0.00,VWS V14.01,2013-03-19 11:25:00,
2013-03-19 07:30:00,34.5,34.0,29.65,East,85,3.6,6.3,98,0.00,,,0.00,VWS V14.01,2013-03-19 11:30:00,
2013-03-19 07:35:00,34.7,34.2,29.65,East,93,2.7,2.7,98,0.00,,,0.00,VWS V14.01,2013-03-19 11:35:00,
2013-03-19 07:40:00,34.7,34.2,29.65,SE,128,2.7,2.7,98,0.00,,,0.00,VWS V14.01,2013-03-19 11:40:00,
2013-03-19 07:45:00,34.9,34.4,29.65,ESE,104,3.6,3.6,98,0.00,,,0.00,VWS V14.01,2013-03-19 11:45:00,
2013-03-19 07:50:00,34.9,34.4,29.65,ENE,77,3.1,4.9,98,0.00,,,0.00,VWS V14.01,2013-03-19 11:50:00,
2013-03-19 07:55:00,34.9,34.4,29.62,SE,140,3.6,3.6,98,0.00,,,0.00,VWS V14.01,2013-03-19 11:55:00,
2013-03-19 08:00:00,34.9,34.4,29.62,ESE,122,5.4,5.4,98,0.00,,,0.00,VWS V14.01,2013-03-19 12:00:00,
2013-03-19 08:05:00,35.1,34.5,29.62,ESE,117,4.9,4.9,98,0.00,,,0.00,VWS V14.01,2013-03-19 12:05:00,
2013-03-19 08:10:00,35.1,34.5,29.62,East,95,4.0,4.0,98,0.00,,,0.00,VWS V14.01,2013-03-19 12:10:00,
2013-03-19 08:15:00,35.1,34.5,29.62,SE,128,11.0,11.0,98,0.00,,,0.00,VWS V14.01,2013-03-19 12:15:00,
2013-03-19 08:20:00,35.2,34.7,29.62,ENE,74,8.3,8.3,98,0.00,,,0.00,VWS V14.01,2013-03-19 12:20:00,
2013-03-19 08:25:00,35.2,34.7,29.59,East,97,0.0,0.0,98,0.00,,,0.00,VWS V14.01,2013-03-19 12:25:00,
2013-03-19 08:30:00,35.4,34.9,29.59,East,87,2.7,2.7,98,0.00,,,0.00,VWS V14.01,2013-03-19 12:30:00,
2013-03-19 08:35:00,35.4,34.9,29.59,East,101,3.6,5.4,98,0.00,,,0.00,VWS V14.01,2013-03-19 12:35:00,
2013-03-19 08:40:00,35.4,34.9,29.59,ESE,111,2.7,3.6,98,0.00,,,0.00,VWS V14.01,2013-03-19 12:40:00,
2013-03-19 08:45:00,35.4,34.9,29.59,East,84,0.0,0.0,98,0.00,,,0.00,VWS V14.01,2013-03-19 12:45:00,
2013-03-19 08:50:00,35.4,34.9,29.59,South,179,3.1,5.8,98,0.00,,,0.00,VWS V14.01,2013-03-19 12:50:00,
2013-03-19 08:55:00,35.6,35.1,29.59,East,82,3.6,3.6,98,0.00,,,0.00,VWS V14.01,2013-03-19 12:55:00,
2013-03-19 09:00:00,35.6,35.1,29.59,ESE,107,3.6,3.6,98,0.00,,,0.00,VWS V14.01,2013-03-19 13:00:00,
2013-03-19 09:05:00,35.6,35.1,29.59,SE,128,5.4,5.4,98,0.00,,,0.00,VWS V14.01,2013-03-19 13:05:00,
2013-03-19 09:10:00,35.6,35.1,29.59,ESE,112,3.6,3.6,98,0.00,,,0.00,VWS V14.01,2013-03-19 13:10:00,
2013-03-19 09:15:00,35.6,35.1,29.59,SE,124,3.6,3.6,98,0.00,,,0.00,VWS V14.01,2013-03-19 13:15:00,
2013-03-19 09:20:00,35.8,35.3,29.59,ESE,123,4.0,4.0,98,0.00,,,0.00,VWS V14.01,2013-03-19 13:20:00,
2013-03-19 09:25:00,35.8,35.3,29.56,SE,128,3.6,3.6,98,0.00,,,0.00,VWS V14.01,2013-03-19 13:25:00,
2013-03-19 09:30:00,36.0,35.5,29.56,SSE,154,3.1,4.0,98,0.00,,,0.00,VWS V14.01,2013-03-19 13:30:00,
2013-03-19 09:35:00,36.0,35.5,29.56,SE,132,2.7,2.7,98,0.00,,,0.00,VWS V14.01,2013-03-19 13:35:00,
2013-03-19 09:40:00,36.0,35.5,29.56,SE,136,0.0,0.0,98,0.00,,,0.00,VWS V14.01,2013-03-19 13:40:00,
2013-03-19 09:45:00,36.1,35.6,29.56,East,85,0.0,2.7,98,0.00,,,0.00,VWS V14.01,2013-03-19 13:45:00,
2013-03-19 09:50:00,36.1,35.6,29.56,ESE,105,2.7,2.7,98,0.00,,,0.00,VWS V14.01,2013-03-19 13:50:00,
2013-03-19 09:55:00,36.1,35.6,29.53,East,84,2.7,3.1,98,0.00,,,0.00,VWS V14.01,2013-03-19 13:55:00,
2013-03-19 10:00:00,36.1,35.6,29.53,ESE,113,2.7,5.8,98,0.00,,,0.00,VWS V14.01,2013-03-19 14:00:00,
2013-03-19 10:05:00,36.3,35.8,29.53,ENE,77,2.2,3.6,98,0.00,,,0.00,VWS V14.01,2013-03-19 14:05:00,
2013-03-19 10:10:00,36.3,35.8,29.53,ENE,78,2.7,3.1,98,0.00,,,0.00,VWS V14.01,2013-03-19 14:10:00,
2013-03-19 10:15:00,36.3,35.8,29.53,East,84,4.9,4.9,98,0.00,,,0.00,VWS V14.01,2013-03-19 14:15:00,
2013-03-19 10:20:00,36.5,36.0,29.53,East,99,3.6,3.6,98,0.00,,,0.00,VWS V14.01,2013-03-19 14:20:00,
2013-03-19 10:25:00,36.5,36.0,29.53,SE,139,0.0,2.2,98,0.00,,,0.00,VWS V14.01,2013-03-19 14:25:00,
2013-03-19 10:30:00,36.5,36.0,29.53,East,93,2.7,2.7,98,0.00,,,0.00,VWS V14.01,2013-03-19 14:30:00,
2013-03-19 10:35:00,36.5,36.0,29.53,ENE,73,4.9,4.9,98,0.00,,,0.00,VWS V14.01,2013-03-19 14:35:00,
2013-03-19 10:40:00,36.7,36.2,29.53,NE,34,0.0,2.2,98,0.00,,,0.00,VWS V14.01,2013-03-19 14:40:00,
2013-03-19 10:45:00,36.7,36.2,29.53,East,101,2.7,2.7,98,0.00,,,0.00,VWS V14.01,2013-03-19 14:45:00,
2013-03-19 10:50:00,36.7,36.2,29.53,SE,130,4.0,4.0,98,0.00,,,0.00,VWS V14.01,2013-03-19 14:50:00,
2013-03-19 10:55:00,36.7,36.2,29.50,East,101,3.6,4.9,98,0.00,,,0.00,VWS V14.01,2013-03-19 14:55:00,
2013-03-19 11:00:00,36.9,36.3,29.50,East,94,4.0,4.0,98,0.00,,,0.00,VWS V14.01,2013-03-19 15:00:00,
2013-03-19 11:05:00,36.9,36.3,29.50,ESE,112,4.0,5.4,98,0.00,,,0.00,VWS V14.01,2013-03-19 15:05:00,
2013-03-19 11:10:00,36.9,36.3,29.50,East,97,2.7,2.7,98,0.00,,,0.00,VWS V14.01,2013-03-19 15:10:00,
2013-03-19 11:15:00,36.9,36.3,29.50,ENE,74,5.4,5.4,98,0.00,,,0.00,VWS V14.01,2013-03-19 15:15:00,
2013-03-19 11:20:00,37.0,36.5,29.50,East,91,2.7,2.7,98,0.00,,,0.00,VWS V14.01,2013-03-19 15:20:00,
2013-03-19 11:25:00,37.0,36.5,29.50,East,90,5.4,5.4,98,0.00,,,0.00,VWS V14.01,2013-03-19 15:25:00,
2013-03-19 11:30:00,37.0,36.5,29.50,ESE,109,0.0,3.6,98,0.00,,,0.00,VWS V14.01,2013-03-19 15:30:00,
2013-03-19 11:35:00,37.0,36.5,29.50,East,79,4.9,4.9,98,0.00,,,0.00,VWS V14.01,2013-03-19 15:35:00,
2013-03-19 11:40:00,37.2,36.7,29.50,ESE,112,3.1,3.1,98,0.00,,,0.00,VWS V14.01,2013-03-19 15:40:00,
2013-03-19 11:45:00,37.2,36.7,29.47,SE,139,2.2,3.6,98,0.00,,,0.00,VWS V14.01,2013-03-19 15:45:00,
2013-03-19 11:50:00,37.4,36.9,29.47,SE,124,5.4,5.4,98,0.00,,,0.00,VWS V14.01,2013-03-19 15:50:00,
2013-03-19 11:55:00,37.4,36.9,29.47,NE,51,3.1,3.1,98,0.00,,,0.00,VWS V14.01,2013-03-19 15:55:00,
2013-03-19 12:00:00,37.6,37.1,29.47,East,91,3.6,4.9,98,0.00,,,0.00,VWS V14.01,2013-03-19 16:00:00,
2013-03-19 12:05:00,37.6,37.1,29.47,SE,130,4.0,4.0,98,0.00,,,0.00,VWS V14.01,2013-03-19 16:05:00,
2013-03-19 12:10:00,37.6,37.1,29.44,ENE,66,0.0,0.0,98,0.00,,,0.00,VWS V14.01,2013-03-19 16:10:00,
2013-03-19 12:15:00,37.6,37.1,29.44,East,85,6.7,6.7,98,0.00,,,0.00,VWS V14.01,2013-03-19 16:15:00,
2013-03-19 12:20:00,37.8,37.2,29.44,East,90,0.0,0.0,98,0.00,,,0.00,VWS V14.01,2013-03-19 16:20:00,
2013-03-19 12:25:00,37.9,37.4,29.44,ENE,70,2.7,4.5,98,0.00,,,0.00,VWS V14.01,2013-03-19 16:25:00,
2013-03-19 12:30:00,37.9,37.4,29.44,NE,56,3.1,3.1,98,0.00,,,0.00,VWS V14.01,2013-03-19 16:30:00,
2013-03-19 12:35:00,37.9,37.4,29.44,East,98,6.7,6.7,98,0.00,,,0.00,VWS V14.01,2013-03-19 16:35:00,
2013-03-19 12:40:00,38.1,37.6,29.41,South,181,2.7,6.3,98,0.00,,,0.00,VWS V14.01,2013-03-19 16:40:00,
2013-03-19 12:45:00,38.1,37.6,29.41,SE,133,2.7,3.1,98,0.00,,,0.00,VWS V14.01,2013-03-19 16:45:00,
2013-03-19 12:50:00,38.1,37.6,29.41,ESE,102,8.3,8.3,98,0.00,,,0.00,VWS V14.01,2013-03-19 16:50:00,
2013-03-19 12:55:00,38.1,37.6,29.41,East,99,5.8,6.7,98,0.00,,,0.00,VWS V14.01,2013-03-19 16:55:00,
2013-03-19 13:00:00,38.1,37.6,29.41,ENE,75,3.1,4.0,98,0.00,,,0.00,VWS V14.01,2013-03-19 17:00:00,
2013-03-19 13:05:00,38.3,37.8,29.41,East,97,0.0,3.1,98,0.00,,,0.00,VWS V14.01,2013-03-19 17:05:00,
2013-03-19 13:10:00,38.3,37.8,29.38,East,89,3.1,4.0,98,0.00,,,0.00,VWS V14.01,2013-03-19 17:10:00,
2013-03-19 13:15:00,38.3,37.8,29.38,East,98,3.1,3.1,98,0.00,,,0.00,VWS V14.01,2013-03-19 17:15:00,
2013-03-19 13:20:00,38.5,38.0,29.38,East,84,7.6,7.6,98,0.00,,,0.00,VWS V14.01,2013-03-19 17:20:00,
2013-03-19 13:25:00,38.5,38.0,29.38,ESE,103,3.1,3.1,98,0.00,,,0.00,VWS V14.01,2013-03-19 17:25:00,
2013-03-19 13:30:00,38.5,38.0,29.38,ESE,116,4.9,4.9,98,0.00,,,0.00,VWS V14.01,2013-03-19 17:30:00,
2013-03-19 13:35:00,38.5,38.0,29.38,NE,41,4.0,4.0,98,0.00,,,0.00,VWS V14.01,2013-03-19 17:35:00,
2013-03-19 13:40:00,38.5,38.0,29.38,ESE,109,3.6,5.4,98,0.00,,,0.00,VWS V14.01,2013-03-19 17:40:00,
2013-03-19 13:45:00,38.5,38.0,29.38,East,91,0.0,0.0,98,0.00,,,0.00,VWS V14.01,2013-03-19 17:45:00,
2013-03-19 13:50:00,38.5,38.0,29.38,East,81,2.2,2.2,98,0.00,,,0.00,VWS V14.01,2013-03-19 17:50:00,
2013-03-19 13:55:00,38.5,38.0,29.35,ESE,116,2.7,4.0,98,0.00,,,0.00,VWS V14.01,2013-03-19 17:55:00,
2013-03-19 14:00:00,38.5,38.0,29.35,ESE,109,0.0,0.0,98,0.00,,,0.00,VWS V14.01,2013-03-19 18:00:00,
2013-03-19 14:05:00,38.5,38.0,29.35,SSE,168,0.0,0.0,98,0.00,,,0.00,VWS V14.01,2013-03-19 18:05:00,
2013-03-19 14:10:00,38.5,38.0,29.35,ENE,73,0.0,0.0,98,0.00,,,0.00,VWS V14.01,2013-03-19 18:10:00,
2013-03-19 14:15:00,38.5,38.0,29.35,East,91,0.0,0.0,98,0.00,,,0.00,VWS V14.01,2013-03-19 18:15:00,
2013-03-19 14:20:00,38.5,38.0,29.35,NE,45,0.0,0.0,98,0.00,,,0.00,VWS V14.01,2013-03-19 18:20:00,
2013-03-19 14:25:00,38.5,38.0,29.35,NNE,33,0.0,0.0,98,0.00,,,0.00,VWS V14.01,2013-03-19 18:25:00,
2013-03-19 14:30:00,38.5,38.0,29.35,WNW,303,0.0,0.0,98,0.00,,,0.00,VWS V14.01,2013-03-19 18:30:00,
2013-03-19 14:35:00,38.3,37.8,29.35,NW,313,0.0,0.0,98,0.00,,,0.00,VWS V14.01,2013-03-19 18:35:00,
2013-03-19 14:40:00,38.1,37.6,29.41,WSW,241,4.0,4.0,98,0.00,,,0.00,VWS V14.01,2013-03-19 18:40:00,
2013-03-19 14:45:00,38.1,37.6,29.41,North,2,0.0,0.0,98,0.00,,,0.00,VWS V14.01,2013-03-19 18:45:00,
2013-03-19 14:50:00,37.9,37.4,29.41,ESE,122,3.1,3.1,98,0.00,,,0.00,VWS V14.01,2013-03-19 18:50:00,
2013-03-19 14:55:00,37.9,37.4,29.38,SSE,153,0.0,0.0,98,0.00,,,0.00,VWS V14.01,2013-03-19 18:55:00,
2013-03-19 15:00:00,37.8,37.2,29.38,WSW,252,0.0,0.0,98,0.00,,,0.00,VWS V14.01,2013-03-19 19:00:00,
2013-03-19 15:05:00,37.6,36.8,29.38,NNE,24,0.0,0.0,97,0.00,,,0.00,VWS V14.01,2013-03-19 19:05:00,
2013-03-19 15:10:00,37.2,36.7,29.35,SSW,207,0.0,0.0,98,0.00,,,0.00,VWS V14.01,2013-03-19 19:10:00,
2013-03-19 15:15:00,37.0,36.5,29.35,WNW,282,0.0,0.0,98,0.00,,,0.00,VWS V14.01,2013-03-19 19:15:00,
2013-03-19 15:20:00,36.7,36.2,29.35,North,4,0.0,0.0,98,0.00,,,0.00,VWS V14.01,2013-03-19 19:20:00,
2013-03-19 15:25:00,36.7,36.2,29.35,NNE,25,0.0,0.0,98,0.00,,,0.00,VWS V14.01,2013-03-19 19:25:00,
2013-03-19 15:30:00,36.5,36.0,29.35,NNW,330,0.0,0.0,98,0.00,,,0.00,VWS V14.01,2013-03-19 19:30:00,
2013-03-19 15:35:00,36.3,35.8,29.35,NNE,17,0.0,2.2,98,0.00,,,0.00,VWS V14.01,2013-03-19 19:35:00,
2013-03-19 15:40:00,36.3,35.8,29.38,ENE,64,0.0,0.0,98,0.00,,,0.00,VWS V14.01,2013-03-19 19:40:00,
2013-03-19 15:45:00,36.3,35.8,29.38,East,97,3.1,3.1,98,0.00,,,0.00,VWS V14.01,2013-03-19 19:45:00,
2013-03-19 15:50:00,36.3,35.8,29.38,ESE,118,2.7,2.7,98,0.00,,,0.00,VWS V14.01,2013-03-19 19:50:00,
2013-03-19 15:55:00,36.7,36.2,29.29,NE,36,0.0,3.6,98,0.00,,,0.00,VWS V14.01,2013-03-19 19:55:00,
2013-03-19 16:00:00,36.7,36.2,29.29,NNE,14,3.6,3.6,98,0.00,,,0.00,VWS V14.01,2013-03-19 20:00:00,
2013-03-19 16:05:00,36.9,36.3,29.29,SW,223,0.0,2.7,98,0.00,,,0.00,VWS V14.01,2013-03-19 20:05:00,
2013-03-19 16:10:00,37.0,36.5,29.29,WSW,254,0.0,0.0,98,0.00,,,0.00,VWS V14.01,2013-03-19 20:10:00,
2013-03-19 16:15:00,37.2,36.7,29.29,ESE,104,0.0,0.0,98,0.00,,,0.00,VWS V14.01,2013-03-19 20:15:00,
2013-03-19 16:20:00,37.2,36.7,29.29,SE,131,2.7,2.7,98,0.00,,,0.00,VWS V14.01,2013-03-19 20:20:00,
2013-03-19 16:25:00,37.4,36.6,29.29,East,99,0.0,0.0,97,0.00,,,0.00,VWS V14.01,2013-03-19 20:25:00,
2013-03-19 16:30:00,37.9,37.4,29.29,ENE,73,0.0,0.0,98,0.00,,,0.00,VWS V14.01,2013-03-19 20:30:00,
2013-03-19 16:35:00,38.1,37.6,29.29,East,89,0.0,0.0,98,0.00,,,0.00,VWS V14.01,2013-03-19 20:35:00,
2013-03-19 16:40:00,37.9,37.4,29.26,East,95,3.1,3.1,98,0.00,,,0.00,VWS V14.01,2013-03-19 20:40:00,
2013-03-19 16:45:00,37.8,37.2,29.26,ESE,119,0.0,3.6,98,0.00,,,0.00,VWS V14.01,2013-03-19 20:45:00,
2013-03-19 16:50:00,37.8,37.2,29.26,ENE,75,2.7,2.7,98,0.00,,,0.00,VWS V14.01,2013-03-19 20:50:00,
2013-03-19 16:55:00,37.6,37.1,29.26,NNE,18,0.0,0.0,98,0.04,,,0.04,VWS V14.01,2013-03-19 20:55:00,
2013-03-19 17:00:00,37.8,37.2,29.26,NNE,15,0.0,0.0,98,0.04,,,0.04,VWS V14.01,2013-03-19 21:00:00,
2013-03-19 17:05:00,37.8,37.2,29.26,NNW,332,0.0,3.6,98,0.04,,,0.04,VWS V14.01,2013-03-19 21:05:00,
2013-03-19 17:10:00,37.6,37.1,29.26,ESE,102,0.0,2.7,98,0.04,,,0.04,VWS V14.01,2013-03-19 21:10:00,
2013-03-19 17:15:00,37.6,37.1,29.26,SSE,164,0.0,0.0,98,0.04,,,0.04,VWS V14.01,2013-03-19 21:15:00,
2013-03-19 17:20:00,37.6,37.1,29.26,East,89,0.0,0.0,98,0.04,,,0.04,VWS V14.01,2013-03-19 21:20:00,
2013-03-19 17:25:00,37.4,36.9,29.26,NE,39,0.0,0.0,98,0.08,,,0.08,VWS V14.01,2013-03-19 21:25:00,
2013-03-19 17:30:00,37.4,36.9,29.26,NW,321,0.0,0.0,98,0.08,,,0.08,VWS V14.01,2013-03-19 21:30:00,
2013-03-19 17:35:00,37.4,36.9,29.26,NNE,32,0.0,0.0,98,0.08,,,0.08,VWS V14.01,2013-03-19 21:35:00,
2013-03-19 17:40:00,37.4,36.9,29.26,SE,142,0.0,0.0,98,0.08,,,0.08,VWS V14.01,2013-03-19 21:40:00,
2013-03-19 17:45:00,37.2,36.7,29.26,ESE,116,0.0,0.0,98,0.08,,,0.08,VWS V14.01,2013-03-19 21:45:00,
2013-03-19 17:50:00,37.2,36.7,29.26,North,5,0.0,0.0,98,0.08,,,0.08,VWS V14.01,2013-03-19 21:50:00,
2013-03-19 17:55:00,37.2,36.7,29.29,NE,42,0.0,0.0,98,0.04,,,0.08,VWS V14.01,2013-03-19 21:55:00,
2013-03-19 18:00:00,37.0,36.5,29.29,North,7,0.0,0.0,98,0.04,,,0.08,VWS V14.01,2013-03-19 22:00:00,
2013-03-19 18:05:00,37.0,36.5,29.29,WNW,296,0.0,0.0,98,0.04,,,0.08,VWS V14.01,2013-03-19 22:05:00,
2013-03-19 18:10:00,36.9,36.3,29.29,North,1,0.0,0.0,98,0.04,,,0.08,VWS V14.01,2013-03-19 22:10:00,
2013-03-19 18:15:00,36.9,36.3,29.29,NNW,332,0.0,0.0,98,0.04,,,0.08,VWS V14.01,2013-03-19 22:15:00,
2013-03-19 18:20:00,36.9,36.3,29.29,NW,310,0.0,0.0,98,0.04,,,0.08,VWS V14.01,2013-03-19 22:20:00,
2013-03-19 18:25:00,36.7,36.2,29.29,West,279,0.0,0.0,98,0.04,,,0.12,VWS V14.01,2013-03-19 22:25:00,
2013-03-19 18:30:00,36.7,36.2,29.29,South,170,0.0,0.0,98,0.04,,,0.12,VWS V14.01,2013-03-19 22:30:00,
2013-03-19 18:35:00,36.5,36.0,29.29,North,0,0.0,0.0,98,0.04,,,0.12,VWS V14.01,2013-03-19 22:35:00,
2013-03-19 18:40:00,36.3,35.8,29.29,South,172,0.0,0.0,98,0.04,,,0.12,VWS V14.01,2013-03-19 22:40:00,
2013-03-19 18:45:00,36.3,35.8,29.29,WSW,253,0.0,0.0,98,0.04,,,0.12,VWS V14.01,2013-03-19 22:45:00,
2013-03-19 18:50:00,36.1,35.6,29.29,West,268,0.0,0.0,98,0.04,,,0.12,VWS V14.01,2013-03-19 22:50:00,
2013-03-19 18:55:00,36.1,35.6,29.29,West,268,0.0,0.0,98,0.04,,,0.12,VWS V14.01,2013-03-19 22:55:00,
2013-03-19 19:00:00,36.1,35.6,29.29,NNE,23,0.0,0.0,98,0.04,,,0.12,VWS V14.01,2013-03-19 23:00:00,
2013-03-19 19:05:00,36.1,35.6,29.29,NNE,23,0.0,0.0,98,0.04,,,0.12,VWS V14.01,2013-03-19 23:05:00,
2013-03-19 19:10:00,36.1,35.6,29.29,NNE,23,0.0,0.0,98,0.04,,,0.12,VWS V14.01,2013-03-19 23:10:00,
2013-03-19 19:15:00,36.0,35.5,29.29,NNE,22,0.0,0.0,98,0.04,,,0.12,VWS V14.01,2013-03-19 23:15:00,
2013-03-19 19:20:00,36.0,35.5,29.29,NNE,22,0.0,0.0,98,0.04,,,0.12,VWS V14.01,2013-03-19 23:20:00,
2013-03-19 19:25:00,36.0,35.5,29.29,West,272,0.0,0.0,98,0.00,,,0.12,VWS V14.01,2013-03-19 23:25:00,
2013-03-19 19:30:00,36.0,35.5,29.29,West,266,0.0,0.0,98,0.00,,,0.12,VWS V14.01,2013-03-19 23:30:00,
2013-03-19 19:35:00,35.8,35.3,29.29,WNW,296,0.0,0.0,98,0.00,,,0.12,VWS V14.01,2013-03-19 23:35:00,
2013-03-19 19:40:00,35.8,35.3,29.29,SW,220,0.0,0.0,98,0.00,,,0.12,VWS V14.01,2013-03-19 23:40:00,
2013-03-19 19:45:00,35.8,35.3,29.29,SW,220,0.0,0.0,98,0.00,,,0.12,VWS V14.01,2013-03-19 23:45:00,
2013-03-19 19:50:00,35.8,35.3,29.29,East,90,0.0,0.0,98,0.00,,,0.12,VWS V14.01,2013-03-19 23:50:00,
2013-03-19 19:55:00,35.8,35.3,29.29,NW,324,0.0,0.0,98,0.00,,,0.12,VWS V14.01,2013-03-19 23:55:00,
2013-03-19 20:00:00,35.8,35.3,29.29,NW,324,0.0,0.0,98,0.00,,,0.12,VWS V14.01,2013-03-20 00:00:00,
2013-03-19 20:05:00,35.8,35.3,29.29,WSW,237,0.0,0.0,98,0.00,,,0.12,VWS V14.01,2013-03-20 00:05:00,
2013-03-19 20:10:00,35.8,35.3,29.29,WSW,237,0.0,0.0,98,0.00,,,0.12,VWS V14.01,2013-03-20 00:10:00,
2013-03-19 20:15:00,35.8,35.3,29.29,NW,314,0.0,2.2,98,0.00,,,0.12,VWS V14.01,2013-03-20 00:15:00,
2013-03-19 20:20:00,35.6,35.1,29.29,NW,314,0.0,0.0,98,0.00,,,0.12,VWS V14.01,2013-03-20 00:20:00,
2013-03-19 20:25:00,35.6,35.1,29.29,NW,315,0.0,0.0,98,0.00,,,0.12,VWS V14.01,2013-03-20 00:25:00,
2013-03-19 20:30:00,35.6,35.1,29.29,NW,315,0.0,0.0,98,0.00,,,0.12,VWS V14.01,2013-03-20 00:30:00,
2013-03-19 20:35:00,35.6,35.1,29.29,WNW,287,0.0,0.0,98,0.00,,,0.12,VWS V14.01,2013-03-20 00:35:00,
2013-03-19 20:40:00,35.6,35.1,29.29,NW,321,0.0,0.0,98,0.00,,,0.12,VWS V14.01,2013-03-20 00:40:00,
2013-03-19 20:45:00,35.6,35.1,29.32,NW,320,0.0,0.0,98,0.00,,,0.12,VWS V14.01,2013-03-20 00:45:00,
2013-03-19 20:50:00,35.6,35.1,29.32,NW,320,0.0,0.0,98,0.00,,,0.12,VWS V14.01,2013-03-20 00:50:00,
2013-03-19 20:55:00,35.6,35.1,29.32,NNW,327,0.0,0.0,98,0.00,,,0.12,VWS V14.01,2013-03-20 00:55:00,
2013-03-19 21:00:00,35.6,35.1,29.32,WNW,286,0.0,0.0,98,0.00,,,0.12,VWS V14.01,2013-03-20 01:00:00,
2013-03-19 21:05:00,35.6,35.1,29.32,WNW,286,0.0,0.0,98,0.00,,,0.12,VWS V14.01,2013-03-20 01:05:00,
2013-03-19 21:10:00,35.4,34.9,29.35,WNW,286,0.0,0.0,98,0.00,,,0.12,VWS V14.01,2013-03-20 01:10:00,
2013-03-19 21:15:00,35.4,34.9,29.35,WNW,286,0.0,0.0,98,0.00,,,0.12,VWS V14.01,2013-03-20 01:15:00,
2013-03-19 21:20:00,35.4,34.9,29.35,WNW,286,0.0,0.0,98,0.00,,,0.12,VWS V14.01,2013-03-20 01:20:00,
2013-03-19 21:25:00,35.4,34.9,29.35,NW,311,0.0,0.0,98,0.00,,,0.12,VWS V14.01,2013-03-20 01:25:00,
2013-03-19 21:30:00,35.4,34.9,29.35,WNW,302,0.0,0.0,98,0.00,,,0.12,VWS V14.01,2013-03-20 01:30:00,
2013-03-19 21:35:00,35.2,34.7,29.35,WNW,302,0.0,0.0,98,0.00,,,0.12,VWS V14.01,2013-03-20 01:35:00,
2013-03-19 21:40:00,35.2,34.7,29.35,NW,305,0.0,0.0,98,0.00,,,0.12,VWS V14.01,2013-03-20 01:40:00,
2013-03-19 21:45:00,35.1,34.5,29.35,NW,305,0.0,0.0,98,0.00,,,0.12,VWS V14.01,2013-03-20 01:45:00,
2013-03-19 21:50:00,35.1,34.5,29.35,NW,305,0.0,0.0,98,0.00,,,0.12,VWS V14.01,2013-03-20 01:50:00,
2013-03-19 21:55:00,35.1,34.5,29.35,NW,305,0.0,0.0,98,0.00,,,0.12,VWS V14.01,2013-03-20 01:55:00,
2013-03-19 22:00:00,34.9,34.4,29.35,NW,305,0.0,0.0,98,0.00,,,0.12,VWS V14.01,2013-03-20 02:00:00,
2013-03-19 22:05:00,34.9,34.4,29.35,NW,305,0.0,0.0,98,0.00,,,0.12,VWS V14.01,2013-03-20 02:05:00,
2013-03-19 22:10:00,34.5,34.0,29.35,NW,305,0.0,0.0,98,0.00,,,0.12,VWS V14.01,2013-03-20 02:10:00,
2013-03-19 22:15:00,34.5,34.0,29.35,NW,305,0.0,0.0,98,0.00,,,0.12,VWS V14.01,2013-03-20 02:15:00,
2013-03-19 22:20:00,34.2,33.7,29.35,NW,305,0.0,0.0,98,0.00,,,0.12,VWS V14.01,2013-03-20 02:20:00,
2013-03-19 22:25:00,34.0,33.5,29.35,NW,305,0.0,0.0,98,0.00,,,0.12,VWS V14.01,2013-03-20 02:25:00,
2013-03-19 22:30:00,33.8,33.3,29.35,NW,305,0.0,0.0,98,0.00,,,0.12,VWS V14.01,2013-03-20 02:30:00,
2013-03-19 22:35:00,33.6,33.1,29.35,NW,305,0.0,0.0,98,0.00,,,0.12,VWS V14.01,2013-03-20 02:35:00,
2013-03-19 22:40:00,33.4,32.9,29.35,NW,305,0.0,0.0,98,0.00,,,0.12,VWS V14.01,2013-03-20 02:40:00,
2013-03-19 22:45:00,33.4,32.9,29.35,NW,305,0.0,0.0,98,0.00,,,0.12,VWS V14.01,2013-03-20 02:45:00,
2013-03-19 22:50:00,33.4,32.9,29.35,NW,305,0.0,0.0,98,0.00,,,0.12,VWS V14.01,2013-03-20 02:50:00,
2013-03-19 22:55:00,33.4,32.9,29.35,NW,305,0.0,0.0,98,0.04,,,0.16,VWS V14.01,2013-03-20 02:55:00,
2013-03-19 23:00:00,33.3,32.8,29.35,NW,305,0.0,0.0,98,0.04,,,0.16,VWS V14.01,2013-03-20 03:00:00,
2013-03-19 23:05:00,33.1,32.6,29.35,NW,305,0.0,0.0,98,0.04,,,0.16,VWS V14.01,2013-03-20 03:05:00,
2013-03-19 23:10:00,32.9,32.4,29.35,NW,305,0.0,0.0,98,0.04,,,0.16,VWS V14.01,2013-03-20 03:10:00,
2013-03-19 23:15:00,32.7,32.2,29.35,NW,305,0.0,0.0,98,0.04,,,0.16,VWS V14.01,2013-03-20 03:15:00,
2013-03-19 23:20:00,32.5,32.0,29.35,NW,305,0.0,0.0,98,0.04,,,0.16,VWS V14.01,2013-03-20 03:20:00,
2013-03-19 23:25:00,32.4,31.9,29.35,NW,305,0.0,0.0,98,0.04,,,0.16,VWS V14.01,2013-03-20 03:25:00,
2013-03-19 23:30:00,32.2,31.7,29.35,NW,305,0.0,0.0,98,0.04,,,0.16,VWS V14.01,2013-03-20 03:30:00,
2013-03-19 23:35:00,32.2,31.7,29.35,NW,305,0.0,0.0,98,0.04,,,0.16,VWS V14.01,2013-03-20 03:35:00,
2013-03-19 23:40:00,32.0,31.5,29.38,NW,305,0.0,0.0,98,0.04,,,0.16,VWS V14.01,2013-03-20 03:40:00,
2013-03-19 23:45:00,32.0,31.5,29.38,NW,305,0.0,0.0,98,0.04,,,0.16,VWS V14.01,2013-03-20 03:45:00,
2013-03-19 23:50:00,32.0,31.5,29.38,NW,305,0.0,0.0,98,0.04,,,0.16,VWS V14.01,2013-03-20 03:50:00,
2013-03-19 23:55:00,32.0,31.5,29.38,NW,305,0.0,0.0,98,0.00,,,0.16,VWS V14.01,2013-03-20 03:55:00,